Location: Stoke Bliss
(52.2667°N, 2.5167°W)
Time: 01:31:51
(UTC+00:00)

COSMOS 2428 - Pass Details

Date: 03 March 2021
Orbit: 846 x 857 km, 70.9° (Epoch: 11 April)

Event Time Altitude Azimuth Distance (km) Brightness Sun altitude
Rises 19:18:24 0° 164° (SSE) 3,394 5.6 -13.8°
Reaches altitude 10° 19:21:22 10° 149° (SSE) 2,465 4.8 -14.2°
Enters shadow 19:24:48 21° 112° (ESE) 1,819 3.8 -14.7°
Exits shadow 19:32:05 - 41° (NE) 3,218 5.4 -15.8°
Sets 19:32:41 0° 39° (NE) 3,425 5.6 -15.9°
